Dewpoint
61 61 61 61 60 60 60 60 59 59 59 58 58 57 57 56 56 56 56 56 56 56 56 54 52 53 49 29 28 44 49 45 44 41 35 32 30 29 28 28 27 26 27 26 26 25 25
60 60 60 60 60 60 60 59 59 59 58 58 57 57 57 57 57 57 57 57 56 56 55 53 53 53 40 21 29 41 41 38 37 34 34 32 32 32 29 28 28 28 28 28 26 26 26
59 59 59 59 59 59 59 59 59 58 58 58 57 57 57 57 57 57 57 57 56 56 54 53 54 50 39 27 33 36 38 36 34 33 32 34 33 32 32 30 30 30 27 27 26 26 26
59 59 59 58 58 58 58 58 58 58 58 58 57 58 58 58 58 58 57 57 56 55 54 52 53 48 32 33 35 31 34 36 35 35 35 35 35 33 32 31 29 26 26 25 25 25 27
60 59 59 59 58 58 58 58 58 58 58 58 58 58 58 58 58 58 57 57 56 54 52 53 49 47 28 37 30 29 31 32 32 35 34 34 33 31 30 28 24 22 21 21 24 25 25
60 60 60 60 59 59 58 58 59 59 59 59 59 59 58 58 58 57 57 56 54 51 49 48 43 36 33 22 33 33 33 33 31 32 32 33 32 30 29 27 19 23 24 25 23 25 27
60 60 60 60 60 60 59 59 59 59 59 59 59 58 58 58 58 57 57 50 36 41 40 29 27 33 30 27 31 29 33 35 34 31 30 30 30 27 25 23 25 24 23 21 21 21 22
58 58 60 60 59 59 59 59 58 58 58 58 57 56 56 57 57 57 57 40 45 47 40 36 35 33 31 31 31 29 29 28 31 30 29 28 26 27 25 26 25 23 22 21 21 22 27
57 57 57 57 57 57 56 56 56 55 55 54 55 55 56 56 56 57 49 49 50 51 44 33 29 31 32 34 34 34 32 26 26 27 28 25 23 26 26 25 23 19 16 17 23 24 25
56 56 56 56 56 56 56 56 54 53 53 53 54 54 54 54 54 52 49 52 52 55 38 18 35 35 38 38 35 35 35 31 29 25 25 25 26 25 25 23 22 17 19 16 18 24 20
56 55 55 55 54 55 56 56 56 55 54 54 54 53 54 54 54 52 53 53 52 53 16 28 34 38 35 34 30 30 31 31 29 28 28 26 24 25 24 23 21 19 22 24 22 20 22
55 54 53 52 52 52 53 54 55 55 55 54 52 52 55 55 56 54 56 55 52 38 25 25 32 31 32 32 29 30 30 30 29 27 27 26 27 25 22 23 21 21 22 25 24 23 23
54 53 53 53 52 53 54 54 54 54 53 52 50 51 54 56 53 58 57 52 42 32 28 26 28 30 30 30 27 28 28 27 26 23 22 23 22 23 21 24 25 22 23 20 20 19 21
53 52 52 52 52 53 53 52 53 52 52 50 48 49 52 54 58 58 55 44 37 33 30 31 28 29 28 29 29 28 29 27 28 29 24 20 24 26 27 28 31 30 25 23 22 21 21
53 52 52 52 52 51 51 52 53 51 50 50 48 47 50 52 58 58 47 38 37 40 35 33 31 27 27 29 27 27 27 26 28 28 24 24 25 32 32 32 30 33 29 34 29 25 22
52 52 52 52 51 51 51 52 52 51 50 48 44 46 47 53 57 54 46 40 40 42 40 36 32 31 26 26 25 25 25 30 30 33 33 30 25 30 32 31 28 29 30 26 27 26 25
52 51 51 51 50 51 51 51 50 50 49 48 44 44 47 55 56 49 39 38 39 40 41 38 35 33 31 28 27 25 27 37 35 33 33 29 27 30 32 28 27 33 35 37 30 30 28
51 51 51 50 50 50 50 50 49 49 49 46 41 37 49 54 45 43 39 37 39 37 40 37 37 36 34 33 31 28 32 43 40 37 31 40 36 31 29 35 36 33 31 30 30 27 32
50 50 50 50 50 50 50 50 49 49 47 36 35 38 45 49 37 40 38 36 37 35 37 37 37 37 36 36 31 31 36 41 38 39 42 41 34 31 28 35 37 33 32 32 30 34 32
50 50 50 50 50 50 50 50 49 48 46 43 33 36 42 43 38 32 35 34 33 36 37 38 36 36 38 37 37 35 32 40 39 40 40 42 30 31 31 31 36 34 33 32 28 31 33
49 49 49 50 50 50 49 49 49 48 48 43 37 30 37 37 37 33 30 31 33 35 37 37 36 36 33 32 36 33 33 36 38 38 37 36 33 31 31 31 34 31 29 28 27 28 28
48 47 48 49 49 49 49 49 49 48 49 42 37 35 32 31 34 32 31 30 32 31 35 35 35 32 31 29 31 30 34 34 35 39 37 36 33 33 32 33 32 27 26 25 25 26 23
49 49 48 48 49 49 49 49 49 48 47 38 37 37 33 30 32 32 32 29 30 30 36 35 35 35 34 32 35 39 38 36 37 35 35 35 35 33 31 29 26 26 27 26 26 24 22
48 48 48 48 48 48 48 48 49 49 47 35 34 35 32 31 29 30 29 29 28 31 31 37 36 35 37 39 39 39 38 37 35 35 34 32 33 35 33 30 26 28 27 24 22 23 25
48 48 48 48 48 48 48 47 48 48 48 42 39 35 32 28 28 26 28 28 28 28 29 37 38 41 42 40 38 34 33 32 32 32 31 33 34 33 32 28 26 25 25 25 25 23 29
47 47 47 48 48 48 47 47 46 47 48 46 45 45 38 30 26 24 24 27 28 29 31 30 42 43 43 39 37 32 25 26 25 30 35 38 39 35 32 28 23 21 27 28 28 23 33
47 47 47 48 48 48 47 47 46 46 46 44 42 46 43 34 30 29 25 28 26 29 31 34 40 41 42 37 35 31 28 27 27 32 33 36 36 34 33 30 31 28 28 31 26 29 33
46 47 47 47 47 47 47 47 47 47 47 42 38 44 42 36 35 33 32 37 38 33 32 37 40 40 40 37 34 31 31 29 27 27 33 31 31 31 32 31 27 30 29 30 37 37 36
45 46 46 46 47 47 47 47 47 47 47 44 36 42 46 39 39 42 42 41 41 40 41 41 36 37 39 38 37 35 32 30 28 26 26 32 32 33 31 31 31 33 35 38 38 37 37
Wind_Speed
19 18 17 15 14 13 12 10 8 7 6 6 6 7 9 11 13 15 18 20 21 24 25 26 27 27 15 8 5 6 5 5 6 7 7 7 10 10 12 14 10 13 13 11 9 9 11
22 20 18 17 16 14 12 11 10 8 7 7 7 8 9 11 13 16 17 20 21 21 23 25 23 22 9 11 4 8 6 4 9 5 8 7 7 13 10 15 12 15 12 16 17 16 16
23 21 19 18 17 16 14 13 12 9 8 7 7 8 9 11 14 16 19 21 22 23 21 20 14 6 9 13 3 4 5 9 5 8 11 5 6 9 16 16 9 9 16 17 20 18 9
20 20 20 20 19 17 15 13 11 9 7 6 6 8 9 11 14 17 21 24 26 24 20 13 6 6 8 4 10 8 8 9 6 6 7 9 7 10 12 14 19 20 19 20 9 9 7
25 23 23 20 20 18 16 13 12 9 7 6 5 6 8 11 14 19 23 27 29 20 9 8 5 4 10 3 5 7 10 11 11 7 9 9 8 9 14 15 17 20 19 15 7 12 5
29 26 24 23 23 18 17 14 13 11 9 7 5 6 8 10 14 20 25 30 19 10 6 9 11 6 9 8 1 5 5 9 11 9 10 11 8 12 12 15 15 16 15 15 12 5 7
21 29 28 26 23 21 19 17 11 11 9 7 6 5 6 10 14 19 16 9 5 3 9 13 9 10 12 4 3 8 7 7 11 13 13 14 13 13 15 15 12 14 13 15 17 18 20
15 15 23 23 21 18 16 15 15 14 11 8 6 3 5 8 12 18 10 7 7 5 11 17 20 23 22 14 11 14 11 11 13 14 15 15 15 17 11 8 9 11 14 17 17 20 4
23 22 18 19 21 20 18 16 17 14 12 9 6 2 4 7 11 9 6 7 10 11 8 18 23 19 16 16 20 18 16 16 19 16 15 18 18 1 4 9 14 16 16 15 16 22 19
27 25 23 22 18 18 18 17 16 14 12 8 4 2 7 13 3 3 1 5 9 7 7 19 7 8 9 5 9 16 19 13 18 22 20 18 18 13 15 18 14 18 15 19 16 15 20
28 26 24 23 22 21 19 19 16 14 13 7 5 4 7 8 6 3 4 9 10 3 7 8 8 4 5 9 3 6 2 11 19 20 11 17 17 12 12 17 16 11 16 14 13 17 18
29 27 25 25 24 22 21 19 17 14 12 9 6 2 2 4 2 4 10 14 8 7 12 4 7 7 10 11 10 6 6 8 8 15 21 22 17 15 11 13 15 12 15 13 18 19 19
28 27 26 25 24 23 20 18 16 16 13 11 7 5 3 3 2 4 8 7 6 10 2 7 3 9 13 9 10 8 8 8 8 6 13 16 18 16 12 9 13 15 12 13 13 12 20
31 29 26 25 23 23 23 20 19 17 15 13 9 6 5 3 1 2 1 3 13 0 22 0 4 7 12 9 11 11 7 9 11 8 10 9 6 1 4 6 7 8 13 10 8 13 19
32 30 28 26 23 22 22 22 21 19 16 13 10 6 8 7 5 3 5 6 5 2 12 11 11 13 12 10 4 11 11 9 5 2 6 7 5 5 1 1 3 5 3 10 8 12 14
33 32 30 27 25 23 23 22 20 20 18 17 10 10 11 14 10 7 8 6 9 9 7 12 9 14 15 13 11 9 12 5 2 3 5 6 4 4 10 2 7 5 7 6 5 4 5
35 33 31 29 27 24 22 23 22 21 21 19 7 8 15 18 10 7 8 9 10 19 9 3 12 12 12 9 8 7 5 3 5 1 4 6 4 2 1 5 4 1 3 2 5 5 2
34 34 32 30 29 27 25 23 23 22 17 13 9 14 16 16 12 7 15 17 9 10 19 13 11 10 13 8 7 10 2 7 12 7 3 3 5 8 6 7 5 7 8 6 3 3 4
35 34 33 32 29 27 27 25 24 22 25 16 15 7 10 16 16 20 15 17 12 7 11 7 9 8 5 8 7 8 8 7 4 5 6 8 2 5 7 3 8 6 1 1 3 2 7
38 35 34 33 31 29 28 27 25 26 29 7 9 9 6 15 18 19 27 22 20 12 9 19 12 10 7 15 8 6 7 3 5 8 3 4 7 11 8 8 5 8 9 13 12 7 10
35 36 36 35 32 29 28 26 26 25 20 7 6 10 10 10 20 24 21 12 20 16 18 17 19 19 18 11 18 11 9 8 4 6 2 2 6 10 14 14 11 16 17 18 20 20 20
32 33 32 32 30 28 29 32 31 31 18 12 4 2 12 8 19 25 24 29 25 23 14 21 18 22 18 18 13 11 10 6 15 3 3 3 5 7 13 13 17 24 23 22 23 23 22
30 31 33 32 30 30 29 28 26 24 16 10 12 6 4 11 13 22 25 23 27 22 18 22 22 22 13 19 11 2 9 11 1 4 5 1 2 4 8 11 14 15 16 22 23 18 14
33 31 30 31 29 30 29 28 28 24 25 12 12 1 4 6 15 20 25 26 24 26 22 19 16 20 12 3 2 5 8 10 9 10 8 9 10 7 5 8 7 13 15 7 7 7 6
30 31 31 30 30 29 28 27 25 23 26 16 4 10 6 8 13 17 21 22 20 17 20 12 7 2 2 6 2 5 7 11 19 19 17 14 12 3 4 10 15 22 14 12 9 11 5
29 30 30 29 29 28 28 27 25 23 22 17 8 9 8 8 14 16 15 23 18 18 11 20 7 5 5 9 6 6 10 10 8 7 2 9 3 11 6 5 6 4 7 4 2 8 11
31 30 29 29 28 28 27 27 25 24 19 15 8 6 4 7 13 10 7 11 16 20 15 12 11 6 9 10 11 10 17 14 10 12 8 7 4 10 12 10 8 17 4 3 7 2 6
27 27 27 27 27 26 27 27 25 23 21 16 13 7 5 4 7 7 8 12 12 2 15 13 13 6 10 10 8 7 8 12 15 14 10 13 14 9 8 5 11 15 16 6 5 5 1
29 28 27 25 25 25 25 25 25 25 23 19 11 9 1 4 4 8 10 6 6 8 9 6 10 10 9 8 8 6 8 8 16 17 19 13 11 11 16 11 14 5 5 6 3 3 4
Wind_Direction
203 205 209 215 219 220 221 224 234 248 266 287 305 317 327 331 334 334 334 330 332 330 330 329 328 328 334 309 351 140 182 173 223 248 289 305 293 293 286 312 311 269 279 299 298 288 261
205 204 208 213 218 220 222 225 224 232 253 275 296 311 322 326 329 327 328 324 324 322 321 321 322 325 301 292 35 129 239 204 259 250 283 256 289 338 308 278 286 305 305 290 288 279 269
202 200 205 210 215 219 217 226 228 229 241 262 285 303 315 322 325 324 322 318 316 313 312 309 312 322 287 259 315 167 205 257 312 293 286 288 323 304 307 305 329 288 283 278 267 244 257
198 199 206 205 210 215 216 219 232 231 239 256 276 299 311 321 324 323 316 313 310 307 306 294 296 286 267 348 332 281 235 256 257 282 282 305 305 290 277 283 287 279 261 272 294 154 174
198 198 201 205 206 208 212 211 219 225 232 238 269 294 308 318 322 317 313 309 301 299 281 274 274 250 277 141 243 243 232 243 240 240 255 272 272 265 281 269 284 260 251 277 194 180 223
197 197 200 204 204 199 210 207 209 215 220 233 242 279 302 313 316 312 315 300 281 305 240 232 260 289 243 276 66 276 231 247 253 250 245 238 255 248 255 253 270 336 340 332 332 140 183
187 191 192 198 196 197 205 207 203 216 217 218 231 245 287 308 307 310 332 327 270 204 237 245 281 249 299 236 205 249 219 232 246 251 250 252 241 250 265 308 348 332 311 299 293 291 295
169 155 182 182 185 188 193 190 192 194 189 189 196 228 278 294 308 316 298 330 27 330 296 279 268 265 263 284 275 270 244 235 235 246 246 240 245 254 288 341 327 311 292 286 291 284 357
170 163 152 149 155 155 159 166 167 167 168 168 175 167 294 308 319 303 326 32 355 341 263 277 248 243 253 238 250 260 247 234 250 253 245 266 268 270 282 293 285 278 280 284 276 296 290
175 170 166 163 161 164 162 163 163 160 158 165 149 334 328 321 319 336 53 353 345 345 280 263 200 235 208 231 260 256 250 254 247 252 264 270 277 285 278 275 270 276 281 276 262 268 275
176 177 178 178 180 181 180 177 179 181 177 188 243 279 325 353 319 14 4 337 320 265 282 72 120 83 151 202 26 172 232 250 248 254 228 260 280 233 264 266 275 292 304 296 292 277 288
183 183 182 183 184 185 189 191 189 200 196 198 208 212 326 281 272 352 338 319 282 239 246 197 128 191 199 217 242 139 189 227 283 251 257 263 263 281 267 300 301 302 286 277 266 257 259
183 180 180 182 181 177 177 180 183 184 185 177 168 176 183 239 195 2 1 326 236 229 239 249 205 193 216 188 221 215 183 203 225 207 231 247 245 248 245 266 265 253 269 283 289 261 245
182 180 180 180 181 175 171 170 171 170 166 162 160 177 183 231 29 54 30 90 224 262 230 242 286 221 229 212 224 211 220 232 217 266 284 263 153 228 118 245 312 311 240 261 299 306 315
182 180 179 176 176 176 174 173 169 168 169 163 148 203 220 200 194 196 150 212 196 345 316 313 258 274 226 222 272 208 221 241 64 27 299 336 113 133 139 290 300 356 293 320 294 303 293
180 177 175 172 173 176 174 169 170 168 168 165 169 180 208 175 188 190 186 200 186 230 278 322 274 236 253 217 203 216 212 44 92 12 315 354 290 197 146 277 242 297 345 312 320 309 309
177 175 172 172 171 172 169 167 168 170 174 185 234 191 164 157 168 196 207 215 222 228 212 235 289 306 270 239 244 232 53 84 321 171 297 275 256 178 66 238 271 225 105 24 305 341 289
174 172 171 171 170 169 165 166 167 174 173 170 194 198 142 147 192 204 218 209 203 235 224 241 263 284 280 280 267 216 144 73 313 296 313 25 335 297 291 13 342 313 314 325 73 288 316
172 171 169 168 169 166 164 167 170 175 180 178 191 153 177 190 214 221 223 235 218 220 219 226 224 226 258 286 246 266 140 153 220 44 24 8 269 315 278 223 13 319 335 138 237 98 256
171 169 168 167 168 165 167 167 175 185 203 236 194 184 153 206 232 234 221 223 225 237 227 219 219 218 242 239 262 246 233 158 70 95 24 340 266 265 252 300 243 261 284 284 295 256 255
169 166 165 164 166 166 167 169 180 195 207 220 245 200 172 195 216 225 225 211 212 217 218 209 233 206 210 210 212 221 238 180 206 138 207 255 259 269 289 306 293 285 286 278 272 269 259
168 166 165 168 164 166 168 173 184 195 175 213 235 191 171 223 208 210 224 217 201 217 208 225 237 215 233 241 229 249 309 295 249 165 228 84 274 280 283 292 280 273 270 266 266 264 266
168 167 167 166 164 165 167 173 186 196 189 210 215 260 186 211 208 206 218 222 214 217 206 221 227 241 223 238 255 251 249 277 38 191 172 205 260 300 269 283 293 280 261 265 256 259 256
169 168 167 166 166 168 170 178 187 192 196 228 217 286 240 212 224 215 211 223 220 226 218 197 219 234 235 312 138 190 236 250 242 239 248 255 256 261 261 286 258 252 258 297 317 289 282
170 167 167 167 166 168 172 178 185 191 205 234 242 211 232 234 230 227 207 227 232 234 247 169 212 175 125 144 244 231 236 258 253 248 239 225 237 200 239 230 271 287 265 236 286 239 98
173 169 167 168 169 170 174 178 183 189 202 223 238 303 270 248 244 227 227 210 206 225 208 229 101 138 213 185 191 218 225 214 215 163 149 85 142 187 190 243 242 273 105 54 356 261 81
170 169 171 171 172 173 173 179 183 186 188 203 230 269 271 229 251 336 251 271 222 210 209 214 163 191 199 208 209 222 229 234 212 183 178 150 143 199 218 241 264 276 76 73 235 187 118
170 168 169 171 172 174 175 179 180 181 175 186 221 231 300 261 295 328 335 6 326 272 207 180 176 218 195 210 206 210 236 234 239 234 170 172 176 191 197 238 253 257 242 219 104 134 180
169 168 168 169 171 173 176 177 177 175 173 178 220 203 291 290 303 318 308 325 25 5 336 285 199 173 187 196 220 203 227 230 232 239 227 195 194 177 183 206 231 233 117 131 141 267 298